Pilot Point AP, Pilot Point,, AK

12:51 AM AKST on November 18, 2019 (GMT -0900)
Pilot Point AP, Pilot Point,

Weather History for PAPN - October, 2019

Change the Weather History Date:

Sunday, October 20, 2019

  Actual Average (PAPH) Record (PAPH)
Temperature  
Mean Temperature 42 °F -  
Max Temperature 48 °F 39 °F 50 °F (2015)
Min Temperature 37 °F 29 °F 21 °F (2003)
Degree Days  
Heating Degree Days 22    
Moisture  
Dew Point 37 °F    
Average Humidity 84    
Maximum Humidity 100    
Minimum Humidity 61    
Precipitation  
Precipitation 0.02 in - - ()
Sea Level Pressure  
Sea Level Pressure 29.59 in    
Wind  
Wind Speed 8 mph ()    
Max Wind Speed 17 mph    
Max Gust Speed 25 mph    
Visibility 8.4 miles    
Events      
Averages and records for this station are not official NWS values.
T = Trace of Precipitation, MM = Missing Value Source: Averaged Metar Reports

Daily Weather History Graph

Daily Weather History Graph

Search for Another Location

Airport or City:

Astronomy

Oct. 20, 2019 Rise Set
Actual Time 9:15 AM AKDT 7:13 PM AKDT
Civil Twilight 8:35 AM AKDT 7:53 PM AKDT
Nautical Twilight 7:50 AM AKDT 8:38 PM AKDT
Astronomical Twilight 7:05 AM AKDT 9:22 PM AKDT
Moon 11:40 PM AKDT (10/20) 4:48 PM AKDT (10/20)
Length of Visible Light 11h 17m
Length of Day
9h 57m
Waning Gibbous, 58% of the Moon is Illuminated
Oct 20
Waning Gibbous
Oct 21
Last Quarter
Oct 27
New
Nov 4
First Quarter
Nov 12
Full

Hourly Weather History & Observations

Time (AKDT) Temp. Windchill Dew Point Humidity Pressure Visibility Wind Dir Wind Speed Gust Speed Precip Events Conditions
12:56 AM 37.9 °F 33.5 °F 37.0 °F 97% 29.55 in 10.0 mi SE 5.8 mph - N/A   Overcast
1:56 AM 39.0 °F 34.0 °F 37.0 °F 93% 29.55 in 10.0 mi SE 6.9 mph - N/A   Overcast
2:52 AM 39.2 °F 33.0 °F 37.4 °F 93% 29.55 in 10.0 mi SE 9.2 mph - N/A   Overcast
2:56 AM 39.0 °F 32.8 °F 37.9 °F 96% 29.56 in 10.0 mi SE 9.2 mph - N/A   Overcast
3:42 AM 39.2 °F 31.2 °F 39.2 °F 100% 29.54 in 6.0 mi SE 13.8 mph - 0.01 in   Overcast
3:56 AM 41.0 °F 33.5 °F 39.9 °F 96% 29.55 in 7.0 mi SSE 13.8 mph - 0.01 in   Overcast
4:03 AM 41.0 °F 32.5 °F 39.2 °F 93% 29.54 in 9.0 mi SSE 17.3 mph 21.9 mph N/A   Overcast
4:35 AM 42.8 °F 36.6 °F 42.8 °F 100% 29.55 in 10.0 mi WSW 11.5 mph - N/A   Overcast
4:56 AM 43.0 °F 35.7 °F 42.1 °F 97% 29.55 in 10.0 mi West 15.0 mph - N/A   Overcast
5:56 AM 43.0 °F 36.0 °F 39.9 °F 89% 29.58 in 6.0 mi West 13.8 mph 25.3 mph N/A   Overcast
6:46 AM 44.6 °F 39.7 °F 39.2 °F 81% 29.58 in 10.0 mi West 9.2 mph - 0.01 in   Overcast
6:56 AM 44.1 °F 39.5 °F 39.9 °F 85% 29.59 in 10.0 mi West 8.1 mph - 0.01 in   Overcast
7:15 AM 41.0 °F 34.7 °F 39.2 °F 93% 29.59 in 10.0 mi SSW 10.4 mph - N/A   Overcast
7:56 AM 39.9 °F 33.4 °F 39.0 °F 97% 29.60 in 9.0 mi SSW 10.4 mph - N/A   Overcast
8:56 AM 39.9 °F 32.1 °F 37.9 °F 93% 29.61 in 10.0 mi SW 13.8 mph - N/A   Mostly Cloudy
9:56 AM 39.0 °F 31.8 °F 37.9 °F 96% 29.63 in 9.0 mi SSW 11.5 mph - N/A   Overcast
10:56 AM 39.9 °F 32.9 °F 37.9 °F 93% 29.64 in 9.0 mi SSW 11.5 mph - N/A   Partly Cloudy
11:56 AM 42.1 °F 35.7 °F 39.0 °F 89% 29.65 in 10.0 mi SW 11.5 mph - N/A   Mostly Cloudy
12:56 PM 44.1 °F 38.1 °F 39.0 °F 82% 29.64 in 9.0 mi SSW 11.5 mph - N/A   Clear
1:56 PM 46.0 °F 41.9 °F 39.0 °F 76% 29.64 in 10.0 mi SW 8.1 mph - N/A   Clear
2:56 PM 46.9 °F - 37.9 °F 71% 29.63 in 10.0 mi SSW 6.9 mph - N/A   Clear
3:56 PM 48.0 °F - 35.1 °F 61% 29.62 in 2.5 mi SW 4.6 mph - N/A   Haze
4:05 PM 46.4 °F 44.3 °F 35.6 °F 66% 29.61 in 1.5 mi SW 4.6 mph - N/A   Haze
4:13 PM 46.4 °F 45.2 °F 35.6 °F 66% 29.60 in 2.0 mi SW 3.5 mph - N/A   Haze
4:21 PM 46.4 °F - 35.6 °F 66% 29.60 in 1.5 mi Calm Calm - N/A   Haze
4:26 PM 48.2 °F - 35.6 °F 62% 29.60 in 3.0 mi Calm Calm - N/A   Haze
4:56 PM 46.9 °F - 34.0 °F 61% 29.60 in 10.0 mi SE 3.5 mph - N/A   Clear
5:56 PM 46.9 °F - 36.0 °F 66% 29.59 in 10.0 mi ESE 8.1 mph - N/A   Clear
6:56 PM 41.0 °F 35.8 °F 36.0 °F 82% 29.59 in 10.0 mi East 8.1 mph - N/A   Clear
7:56 PM 41.0 °F 35.2 °F 35.1 °F 79% 29.58 in 10.0 mi ESE 9.2 mph - N/A   Clear
8:56 PM 37.9 °F 31.5 °F 34.0 °F 86% 29.58 in 10.0 mi East 9.2 mph - N/A   Clear
9:56 PM 39.9 °F 32.9 °F 34.0 °F 79% 29.57 in 10.0 mi ESE 11.5 mph - N/A   Clear
10:56 PM 37.0 °F 29.8 °F 33.1 °F 86% 29.56 in 10.0 mi East 10.4 mph - N/A   Clear
11:56 PM 37.0 °F 29.8 °F 33.1 °F 86% 29.55 in 10.0 mi ESE 10.4 mph - N/A   Clear